Location: Alladorf
(49.9620°N, 11.3790°E)
Time: 20:02:28
(UTC+00:00)

USA 307 - Pass Details

Date: 29 November 2020
Orbit: 563 x 583 km, 54.0° (Epoch: 22 January)

Event Time Altitude Azimuth Distance (km) Brightness Sun altitude
Exits shadow 05:07:17 27° 304° (NW) 1,135 3.9 -15.6°
Maximum altitude 05:09:25 55° 11° (N) 706 3.3 -15.3°
Drops below altitude 10° 05:13:42 10° 90° (E) 1,905 6.8 -14.7°
Sets 05:16:00 0° 95° (E) 2,804 8.2 -14.3°
